User: anonymous   Login
Location: Bergen
(60.3910°N, 5.3250°E)
Time: 06:37:29
(UTC+02:00)
Language:

Cosmos 1943 - Orbit

View from above orbital plane
View from above orbital plane
View from above satellite
View from above satellite

Ground track
Ground track

The orbit data is extracted from the following two-line orbital elements,

1 19119U 88039A   15213.90830281 -.00000213  00000-0 -85126-4 0  9996
2 19119 071.0034 100.8025 0011012 008.9501 066.2372 14.15024953405157
Epoch (UTC): 01 August 2015 21:47:57
Eccentricity: 0.0011012
inclination: 71.0034°
perigee height: 834 km
apogee height: 850 km
right ascension of ascending node: 100.8025°
argument of perigee: 8.9501°
revolutions per day: 14.15024953
mean anomaly at epoch: 66.2372°
orbit number at epoch: 40515

The dashed part of the orbit path shows where the satellite is in the earth's shadow,  

DLR